This demonstration page uses our WeatherBlox Daily Observations layout. Learn more.

Left ArrowRight Arrow

38.80484, -77.04692

Hourly Observations for August 26, 2021

Temp ( °F °C ) Dew Point ( °F °C ) Humidity (%) Winds ( mph kmh ) Pressure ( in mb ) Visibility ( mi km ) Precip ( " mm )
12:52 am 00:52 Mostly Cloudy 79 26.1 71 21.7 77 77 N N/A 30.11 1020 10 16 N/A
1:52 am 01:52 Mostly Cloudy 76 24.4 70 21.1 82 82 N 6 9 30.11 1020 10 16 N/A
2:52 am 02:52 Mostly Cloudy 76 24.4 70 21.1 82 82 VRB 3 6 30.12 1020 10 16 N/A
3:52 am 03:52 Mostly Cloudy 78 25.6 70 21.1 76 76 N N/A 30.12 1020 10 16 N/A
4:52 am 04:52 Cloudy 79 26.1 70 21.1 74 74 N N/A 30.12 1020 10 16 N/A
5:52 am 05:52 Cloudy 78 25.6 71 21.7 79 79 VRB 3 6 30.12 1020 10 16 N/A
6:52 am 06:52 Mostly Cloudy 78 25.6 72 22.2 82 82 N N/A 30.13 1020 8 13 N/A
7:52 am 07:52 Mostly Cloudy 79 26.1 73 22.8 82 82 N N/A 30.14 1021 7 11 N/A
8:52 am 08:52 Mostly Cloudy 81 27.2 74 23.3 79 79 S 3 6 30.14 1021 7 11 N/A
9:52 am 09:52 Mostly Cloudy 82 27.8 74 23.3 77 77 SW 3 6 30.15 1021 9 14 N/A
10:52 am 10:52 Mostly Cloudy 86 30 75 23.9 70 70 SE 3 6 30.14 1021 8 13 N/A
11:52 am 11:52 Mostly Cloudy 87 30.6 76 24.4 70 70 SSE 5 7 30.14 1021 8 13 N/A
12:31 pm 12:31 Mostly Cloudy with Heavy Rain 86 30 77 25 75 75 N 6 9 30.14 1021 2 3 0.04 1.02
12:34 pm 12:34 Mostly Cloudy with Light Rain 85 29.4 77 25 77 77 N 5 7 30.14 1021 6 10 0.06 1.52
12:45 pm 12:45 Mostly Cloudy with Thunderstorms 85 29.4 77 25 77 77 N N/A 30.13 1020 8 13 0.11 2.79
12:52 pm 12:52 Mostly Cloudy with Strong Thunderstorms 83 28.3 76 24.4 79 79 N N/A 30.13 1020 8 13 0.15 3.81
1:05 pm 13:05 Mostly Cloudy with Light Rain 84 28.9 76 24.4 77 77 N N/A 30.13 1020 10 16 0.06 1.52
1:19 pm 13:19 Partly Cloudy 86 30 76 24.4 72 72 N N/A 30.13 1020 10 16 0.06 1.52
1:52 pm 13:52 Partly Cloudy 87 30.6 75 23.9 67 67 SSE 3 6 30.11 1020 9 14 0.06 1.52
2:47 pm 14:47 Partly Cloudy with Nearby Thunderstorms 91 33 75 24 59 59 SSE 5 7 30.10 1019 10 16 N/A
2:52 pm 14:52 Partly Cloudy with Nearby Thunderstorms 91 32.8 75 23.9 59 59 SE 3 6 30.09 1019 9 14 N/A
3:18 pm 15:18 Mostly Cloudy with Thunderstorms 86 30 75 23.9 70 70 S 22 35 30.10 1019 9 14 N/A
3:30 pm 15:30 Mostly Cloudy with Thunderstorms 84 28.9 73 22.8 70 70 SSW 16 26 30.11 1020 4 6 0.00 0.00
3:39 pm 15:39 Mostly Cloudy with Thunderstorms 80 26.7 72 22.2 76 76 W 18 30 30.13 1020 2 3 0.06 1.52
3:52 pm 15:52 Mostly Cloudy with Thunderstorms 77 25 67 19.4 71 71 NNW 16 26 30.11 1020 1 2 0.14 3.56
4:01 pm 16:01 Cloudy with Thunderstorms 77 25 67 19.4 71 71 N 15 24 30.12 1020 3 4 0.06 1.52
4:12 pm 16:12 Cloudy with Thunderstorms 77 25 66 18.9 69 69 N 13 20 30.12 1020 4 6 0.18 4.57
4:30 pm 16:30 Cloudy with Thunderstorms 75 23.9 68 20 79 79 N 13 20 30.12 1020 10 16 0.23 5.84
4:47 pm 16:47 Cloudy with Nearby Thunderstorms 75 24 68 20 78 78 N 6 9 30.10 1019 10 16 0.23 5.84
4:52 pm 16:52 Cloudy with Nearby Thunderstorms 76 24.4 68 20 77 77 N 8 13 30.10 1019 10 16 0.23 5.84
5:19 pm 17:19 Mostly Cloudy 76 24.4 69 20.6 79 79 S 5 7 30.08 1019 10 16 0.00 0.00
5:52 pm 17:52 Mostly Cloudy 78 25.6 69 20.6 74 74 N N/A 30.07 1018 10 16 0.00 0.00
6:52 pm 18:52 Mostly Cloudy 80 26.7 70 21.1 71 71 SSW 3 6 30.07 1018 10 16 N/A
7:52 pm 19:52 Mostly Cloudy 81 27.2 70 21.1 69 69 N N/A 30.08 1019 10 16 N/A
8:52 pm 20:52 Mostly Cloudy 81 27.2 71 21.7 72 72 N N/A 30.10 1019 10 16 N/A
9:52 pm 21:52 Mostly Cloudy 80 26.7 73 22.8 79 79 N N/A 30.10 1019 10 16 N/A
10:52 pm 22:52 Mostly Cloudy 80 26.7 72 22.2 76 76 N N/A 30.11 1020 10 16 N/A
11:52 pm 23:52 Mostly Cloudy 78 25.6 73 22.8 85 85 N N/A 30.11 1020 10 16 N/A

Powered by AerisWeather